FW8084 Weather Reports


time (UTC)temp
F
wind
direction
speed
knots
gust
knots
rain 1hr
in
rain 24hr
in
rain mn
in
humidity
%
barometer
mb
20260504041630 52 355 0.0 0.0 0.00 0.00 0.00 74 1020.4
20260504041127 53 342 0.9 1.7 0.00 0.00 0.00 74 1020.7
20260504040624 53 313 0.9 1.7 0.00 0.00 0.00 73 1020.4
20260504040121 55 56 0.0 0.9 0.00 0.00 0.00 72 1020.3
20260504035618 55 161 0.0 0.0 0.00 0.00 0.00 68 1020.1
20260504035114 55 170 0.0 0.0 0.00 0.00 0.00 69 1020.2
20260504034612 55 156 0.0 1.7 0.00 0.00 0.00 70 1020.2
20260504034109 55 175 0.0 0.0 0.00 0.00 0.00 69 1020.3
20260504033607 55 176 0.0 0.0 0.00 0.00 0.00 69 1020.0
20260504033104 55 177 1.7 2.6 0.00 0.00 0.00 67 1020.0
20260504032601 55 179 2.6 2.6 0.00 0.00 0.00 67 1020.1
20260504032058 53 177 2.6 2.6 0.00 0.00 0.00 70 1020.3
20260504031554 51 183 0.0 1.7 0.00 0.00 0.00 77 1020.3
20260504031050 52 322 0.0 0.0 0.00 0.00 0.00 77 1020.6
20260504030548 52 322 0.0 0.0 0.00 0.00 0.00 76 1020.8
20260504030044 53 322 0.0 0.0 0.00 0.00 0.00 77 1020.6
20260504025541 53 322 0.0 0.0 0.00 0.00 0.00 75 1020.7
20260504025038 53 322 0.0 0.0 0.00 0.00 0.00 74 1020.9
20260504024535 54 322 0.0 0.9 0.00 0.00 0.00 69 1020.8
20260504024032 55 321 0.0 0.0 0.00 0.00 0.00 71 1020.9
20260504023528 55 322 0.0 0.9 0.00 0.00 0.00 68 1021.0
20260504023024 56 321 0.0 0.0 0.00 0.00 0.00 64 1020.9
20260504022520 57 320 0.0 0.9 0.00 0.00 0.00 64 1020.6
20260504022017 60 171 0.0 0.9 0.00 0.00 0.00 57 1020.6
20260504021515 62 171 0.0 0.9 0.00 0.00 0.00 56 1020.8
20260504021012 62 171 0.0 2.6 0.00 0.00 0.00 48 1020.9
20260504020508 62 187 0.9 1.7 0.00 0.00 0.00 48 1020.6
20260504020005 61 295 0.0 0.0 0.00 0.00 0.00 50 1020.4
20260504015501 62 314 0.0 0.0 0.00 0.00 0.00 50 1020.4
20260504014957 62 314 0.0 0.9 0.00 0.00 0.00 49 1020.6
20260504014453 62 301 0.0 0.9 0.00 0.00 0.00 48 1020.4
20260504013950 63 191 0.0 0.0 0.00 0.00 0.00 48 1020.4
20260504013449 64 211 0.0 1.7 0.00 0.00 0.00 46 1020.4
20260504012944 64 181 1.7 4.3 0.00 0.00 0.00 46 1020.1
20260504012443 64 170 1.7 4.3 0.00 0.00 0.00 46 1019.8
20260504011940 64 178 2.6 7.0 0.00 0.00 0.00 46 1020.0
20260504011436 64 165 1.7 5.2 0.00 0.00 0.00 46 1020.1
20260504010932 64 168 2.6 6.1 0.00 0.00 0.00 46 1019.9
20260504010428 65 200 2.6 5.2 0.00 0.00 0.00 46 1019.8
20260504005925 65 146 2.6 5.2 0.00 0.00 0.00 45 1020.0
20260504005421 65 191 2.6 2.6 0.00 0.00 0.00 45 1019.8
20260504004919 65 186 1.7 4.3 0.00 0.00 0.00 45 1019.9
20260504004417 65 176 1.7 5.2 0.00 0.00 0.00 45 1019.9
20260504003913 65 176 2.6 5.2 0.00 0.00 0.00 44 1019.8
20260504003410 65 185 1.7 2.6 0.00 0.00 0.00 44 1019.9
20260504002906 65 194 2.6 5.2 0.00 0.00 0.00 42 1020.0
20260504002403 65 183 1.7 2.6 0.00 0.00 0.00 43 1020.0
20260504001901 66 174 2.6 2.6 0.00 0.00 0.00 42 1019.6
20260504001359 67 174 2.6 5.2 0.00 0.00 0.00 41 1020.1
20260504000855 67 171 1.7 2.6 0.00 0.00 0.00 42 1020.0
20260504000354 67 193 1.7 1.7 0.00 0.00 0.00 41 1019.9
20260503235849 67 169 2.6 5.2 0.00 0.00 0.00 40 1020.0
20260503235347 67 183 2.6 6.1 0.00 0.00 0.00 40 1020.1
20260503234844 67 190 2.6 5.2 0.00 0.00 0.00 40 1020.1
20260503234342 68 149 0.0 4.3 0.00 0.00 0.00 41 1020.2
20260503233839 68 204 2.6 4.3 0.00 0.00 0.00 40 1020.2
20260503233335 68 203 1.7 4.3 0.00 0.00 0.00 40 1020.3
20260503232832 68 178 3.5 5.2 0.00 0.00 0.00 41 1020.4
20260503232329 68 158 0.9 4.3 0.00 0.00 0.00 38 1020.4
20260503231827 69 191 0.0 4.3 0.00 0.00 0.00 38 1020.6
20260503231324 68 167 0.0 2.6 0.00 0.00 0.00 39 1020.7
20260503230820 68 178 2.6 6.1 0.00 0.00 0.00 37 1020.8
20260503230317 69 192 3.5 6.1 0.00 0.00 0.00 37 1020.8
20260503225815 69 316 0.9 2.6 0.00 0.00 0.00 37 1021.0
20260503225310 70 295 2.6 2.6 0.00 0.00 0.00 37 1021.1
20260503224807 69 283 2.6 4.3 0.00 0.00 0.00 37 1021.0
20260503224304 69 352 0.9 4.3 0.00 0.00 0.00 36 1021.0
20260503223802 69 149 1.7 4.3 0.00 0.00 0.00 38 1021.0
20260503223259 69 168 2.6 6.1 0.00 0.00 0.00 37 1021.1
20260503222755 69 167 1.7 6.1 0.00 0.00 0.00 37 1021.2
20260503222254 69 189 2.6 2.6 0.00 0.00 0.00 36 1021.3
20260503221751 68 155 1.7 5.2 0.00 0.00 0.00 37 1021.3
20260503221249 69 149 3.5 6.1 0.00 0.00 0.00 36 1021.1
20260503220745 69 205 2.6 6.1 0.00 0.00 0.00 37 1021.6
20260503220243 69 199 2.6 5.2 0.00 0.00 0.00 37 1021.5
20260503215739 69 178 2.6 4.3 0.00 0.00 0.00 37 1021.5
20260503215236 69 182 2.6 5.2 0.00 0.00 0.00 40 1021.7
20260503214734 69 186 0.9 5.2 0.00 0.00 0.00 38 1021.7
20260503214231 69 147 0.0 6.1 0.00 0.00 0.00 40 1021.8
20260503213729 69 153 0.9 2.6 0.00 0.00 0.00 39 1022.0
20260503213226 69 167 2.6 6.1 0.00 0.00 0.00 42 1022.0
20260503212722 68 157 3.5 6.1 0.00 0.00 0.00 38 1022.3
20260503212220 69 156 5.2 7.0 0.00 0.00 0.00 38 1022.2
20260503211718 69 214 1.7 4.3 0.00 0.00 0.00 38 1022.1
20260503211213 69 174 2.6 2.6 0.00 0.00 0.00 37 1022.4
20260503210710 68 208 2.6 5.2 0.00 0.00 0.00 38 1022.6
20260503210207 68 180 0.9 6.1 0.00 0.00 0.00 36 1022.4
20260503205702 68 2 0.9 2.6 0.00 0.00 0.00 37 1022.7
20260503205158 69 201 3.5 5.2 0.00 0.00 0.00 37 1022.6
20260503204655 68 172 4.3 7.0 0.00 0.00 0.00 39 1023.0
20260503204153 68 162 3.5 7.0 0.00 0.00 0.00 41 1022.9
20260503203649 69 291 0.9 2.6 0.00 0.00 0.00 36 1023.1
20260503203148 68 182 2.6 4.3 0.00 0.00 0.00 40 1023.0
20260503202644 68 191 3.5 6.1 0.00 0.00 0.00 42 1023.1
20260503202142 68 199 4.3 11.3 0.00 0.00 0.00 40 1023.4
20260503201640 68 191 4.3 5.2 0.00 0.00 0.00 40 1023.4
20260503201137 68 271 1.7 2.6 0.00 0.00 0.00 37 1023.5
20260503200633 68 224 0.0 7.8 0.00 0.00 0.00 37 1023.9
20260503200130 68 172 0.9 2.6 0.00 0.00 0.00 39 1023.7
20260503195627 68 176 1.7 6.1 0.00 0.00 0.00 38 1023.8
20260503195124 68 348 0.9 4.3 0.00 0.00 0.00 37 1024.2
20260503194621 67 172 3.5 8.7 0.00 0.00 0.00 36 1024.5
20260503194116 68 125 0.9 1.7 0.00 0.00 0.00 40 1024.4
20260503193613 68 189 3.5 4.3 0.00 0.00 0.00 38 1024.4
20260503193108 66 267 3.5 5.2 0.00 0.00 0.00 39 1024.5
20260503192604 68 173 4.3 7.0 0.00 0.00 0.00 39 1024.8
20260503192100 67 317 1.7 6.1 0.00 0.00 0.00 41 1024.7
20260503191557 67 170 2.6 5.2 0.00 0.00 0.00 39 1024.9
20260503191054 66 326 0.9 5.2 0.00 0.00 0.00 40 1024.9
20260503190551 66 209 2.6 9.6 0.00 0.00 0.00 42 1024.9
20260503190048 66 184 6.1 7.0 0.00 0.00 0.00 39 1025.1
20260503185545 65 306 0.9 2.6 0.00 0.00 0.00 38 1025.3
20260503185044 65 191 4.3 8.7 0.00 0.00 0.00 40 1025.1
20260503184540 65 187 3.5 6.1 0.00 0.00 0.00 50 1025.2
20260503184037 64 190 1.7 6.1 0.00 0.00 0.00 46 1025.5
20260503183534 64 200 6.1 7.8 0.00 0.00 0.00 43 1025.3
20260503183031 65 176 5.2 7.8 0.00 0.00 0.00 41 1025.4
20260503182530 63 177 6.1 7.0 0.00 0.00 0.00 43 1025.4
20260503182027 64 188 7.0 7.8 0.00 0.00 0.00 42 1025.6
20260503181524 64 61 1.7 4.3 0.00 0.00 0.00 47 1025.7
20260503181020 63 92 0.0 7.0 0.00 0.00 0.00 42 1025.9
20260503180518 64 172 3.5 5.2 0.00 0.00 0.00 43 1025.8
20260503180015 63 161 6.1 7.8 0.00 0.00 0.00 41 1025.9
20260503175512 63 189 5.2 6.1 0.00 0.00 0.00 43 1025.9
20260503175009 62 197 4.3 5.2 0.00 0.00 0.00 45 1026.2
20260503174507 64 184 1.7 4.3 0.00 0.00 0.00 46 1026.2
20260503174002 62 193 0.0 2.6 0.00 0.00 0.00 41 1026.1
20260503173457 62 160 1.7 6.1 0.00 0.00 0.00 44 1026.2
20260503172954 62 183 5.2 7.0 0.00 0.00 0.00 44 1026.4
20260503172452 62 194 7.0 7.8 0.00 0.00 0.00 41 1026.5
20260503171948 62 232 4.3 7.0 0.00 0.00 0.00 41 1026.6
20260503171445 62 173 4.3 7.8 0.00 0.00 0.00 41 1026.6
20260503170943 61 289 1.7 5.2 0.00 0.00 0.00 44 1026.6
20260503170438 61 37 0.9 1.7 0.00 0.00 0.00 43 1026.9
20260503150831 57 74 0.9 1.7 0.00 0.00 0.00 62 1027.7
20260503150327 56 81 0.0 1.7 0.00 0.00 0.00 64 1027.7
20260503140251 51 191 1.7 4.3 0.00 0.00 0.00 78 1027.9
20260503131221 47 189 1.7 2.6 0.00 0.00 0.00 87 1027.8
20260503130719 47 190 0.0 0.9 0.00 0.00 0.00 91 1027.8
20260503130216 46 190 0.0 1.7 0.00 0.00 0.00 91 1027.7
20260503120141 40 316 0.0 0.0 0.00 0.00 0.00 99 1027.4
20260503110609 38 314 0.9 0.9 0.00 0.00 0.00 99 1026.7
20260503110106 37 313 0.0 0.0 0.00 0.00 0.00 99 1026.5
20260503090456 39 313 0.9 0.9 0.00 0.00 0.00 98 1026.0
20260503081422 41 319 0.0 0.9 0.00 0.00 0.00 99 1025.9
20260503080920 41 320 0.0 0.0 0.00 0.00 0.00 99 1025.8
20260503080416 41 320 0.0 0.0 0.00 0.00 0.00 98 1025.6
20260503072852 42 321 0.0 0.0 0.00 0.00 0.00 98 1025.5
20260503072349 42 320 0.0 0.0 0.00 0.00 0.00 98 1025.4
20260503071845 42 321 0.0 0.0 0.00 0.00 0.00 97 1025.6
20260503071343 42 321 0.0 0.0 0.00 0.00 0.00 97 1025.6
20260503070839 42 320 0.0 0.0 0.00 0.00 0.00 97 1025.5
20260503070337 43 321 0.0 0.0 0.00 0.00 0.00 97 1025.4
20260503060256 44 328 0.9 1.7 0.00 0.00 0.00 95 1025.5
20260503054743 44 326 0.9 0.9 0.00 0.00 0.00 96 1025.5
20260503054240 44 314 0.9 0.9 0.00 0.00 0.00 96 1025.5
20260503053738 44 308 0.9 1.7 0.00 0.00 0.00 97 1025.4
20260503053237 43 335 0.0 0.0 0.00 0.00 0.00 97 1025.4
20260503052732 43 335 0.0 0.0 0.00 0.00 0.00 97 1025.4
20260503052229 43 335 0.0 0.0 0.00 0.00 0.00 97 1025.4
20260503051724 43 335 0.0 0.0 0.00 0.00 0.00 96 1025.4
20260503051222 43 335 0.0 0.0 0.00 0.00 0.00 96 1025.3
20260503050719 44 335 0.0 0.0 0.00 0.00 0.00 96 1025.3
20260503050215 44 336 0.0 0.0 0.00 0.00 0.00 95 1025.3
20260503045713 44 331 0.9 0.9 0.00 0.00 0.00 95 1025.1
20260503045210 44 314 0.9 0.9 0.00 0.00 0.00 95 1025.1
20260503044707 44 311 0.0 1.7 0.00 0.00 0.00 95 1025.1
20260503044204 44 309 0.9 0.9 0.00 0.00 0.00 95 1025.2
20260503043700 44 313 0.0 0.9 0.00 0.00 0.00 95 1024.9
20260503043158 44 309 0.9 0.9 0.00 0.00 0.00 95 1025.1
20260503042654 45 299 0.0 1.7 0.00 0.00 0.00 95 1024.9
20260503042150 45 301 0.9 1.7 0.00 0.00 0.00 94 1024.9